Weather reports worldwide

Advertisment
Nürburg/Barweiler, Germany (10506): temperature & dewpoint: 15.02.2020 04:00:00 - 21.02.2020 04:00:00 (CET)Nürburg/Barweiler, Germany (10506): temperature 5cm & temperature -5cm: 15.02.2020 04:00:00 - 21.02.2020 04:00:00 (CET)Nürburg/Barweiler, Germany (10506): temperature -20cm & temperature -100cm: 15.02.2020 04:00:00 - 21.02.2020 04:00:00 (CET)Nürburg/Barweiler, Germany (10506): wind speed & gusts: 15.02.2020 04:00:00 - 21.02.2020 04:00:00 (CET)Nürburg/Barweiler, Germany (10506): wind direction: 15.02.2020 04:00:00 - 21.02.2020 04:00:00 (CET)Nürburg/Barweiler, Germany (10506): reduced air pressure: 15.02.2020 04:00:00 - 21.02.2020 04:00:00 (CET)Nürburg/Barweiler, Germany (10506): visibility: 15.02.2020 04:00:00 - 21.02.2020 04:00:00 (CET)Nürburg/Barweiler, Germany (10506): sunshine duration: 15.02.2020 04:00:00 - 21.02.2020 04:00:00 (CET)Nürburg/Barweiler, Germany (10506): precipitation: 15.02.2020 04:00:00 - 21.02.2020 04:00:00 (CET)
Date & Time tt [°C] td [°C] tt 5cm [°C] tt -5cm [°C] tt -20cm [°C] tt -100cm [°C] ff [km/h] ff [kn] fx [km/h] fx [kn] dd ppp [hPa] vv [km] sd [min] rr [mm]
21.02.2020 04:00:00 0,9 -1,1 -0,1 0,9 3,9 5,6 16 9 27 14 WSW 1024,5 39 0 0,0
21.02.2020 03:00:00 1,1 -1,1 -0,4 1,2 4,1 5,6 18 10 32 18 W 1023,4 46 0 0,0
21.02.2020 02:00:00 1,0 -0,7 -0,4 1,6 4,3 5,6 19 10 43 23 W 1022,2 50 0 0,0
21.02.2020 01:00:00 1,1 -0,8 -0,2 2,3 4,4 5,6 28 15 53 28 W 1021,3 49 0 0,0
21.02.2020 00:00:00 1,1 0,3 0,7 3,0 4,4 5,6 32 17 52 28 W 1019,2 58 0 1,1
20.02.2020 23:00:00 2,8 1,4 2,1 3,8 4,5 5,6 24 13 61 33 W 1016,6 42 0 0,8
20.02.2020 22:00:00 4,7 4,1 4,2 4,2 4,5 5,6 28 15 50 27 WSW 1013,7 8 0 1,7
20.02.2020 21:00:00 4,8 3,4 4,0 4,3 4,5 5,6 26 14 50 27 SW 1012,8 12 0 0,6
20.02.2020 20:00:00 5,6 2,7 4,9 4,4 4,5 5,6 26 14 52 28 SW 1013,0 26 0 0,0
20.02.2020 19:00:00 5,7 2,6 5,0 4,6 4,5 5,6 19 11 40 22 SSW 1013,5 63 0 0,0
20.02.2020 18:00:00 5,6 2,8 4,7 4,8 4,4 5,6 16 9 37 20 SW 1014,6 27 0 0,0
20.02.2020 17:00:00 5,7 2,5 5,0 5,1 4,4 5,6 17 9 41 22 SSW 1015,0 69 0 0,0
20.02.2020 16:00:00 5,7 2,5 5,2 5,6 4,2 5,6 21 11 52 28 SSW 1015,6 63 0 0,0
20.02.2020 15:00:00 5,8 2,7 5,4 5,7 4,1 5,6 25 14 52 28 SW 1016,0 46 0 0,0
20.02.2020 14:00:00 5,4 3,0 4,6 5,6 3,9 5,6 22 12 41 22 SW 1016,9 22 0 0,1
20.02.2020 13:00:00 5,6 2,8 5,1 5,5 3,8 5,6 22 12 42 23 SW 1017,7 20 0 0,1
20.02.2020 12:00:00 5,4 2,6 4,9 5,2 3,7 5,6 25 14 46 25 SW 1018,4 28 1 0,0
20.02.2020 11:00:00 5,3 3,2 4,9 4,5 3,6 5,6 18 10 40 22 SW 1018,7 38 1 0,1
20.02.2020 10:00:00 4,7 3,2 4,1 3,7 3,5 5,6 18 10 36 20 SW 1019,4 34 0 0,0
20.02.2020 09:00:00 4,6 3,0 3,8 3,3 3,5 5,6 16 9 32 17 SW 1019,5 28 0 0,0
20.02.2020 08:00:00 4,3 3,3 3,6 3,1 3,4 5,6 13 7 28 15 SSW 1019,3 39 0 0,0
20.02.2020 07:00:00 3,9 3,3 3,4 3,0 3,4 5,6 13 7 31 17 SSW 1019,5 35 0 0,0
20.02.2020 06:00:00 3,6 3,3 3,2 2,9 3,4 5,6 15 8 29 15 SSW 1019,7 9 0 0,0
20.02.2020 05:00:00 3,4 3,3 3,0 2,8 3,4 5,6 13 7 36 19 S 1020,3 7 0 0,0
20.02.2020 04:00:00 3,5 3,1 3,1 2,6 3,4 5,6 13 7 31 17 SSW 1020,6 19 0 0,0
20.02.2020 03:00:00 3,2 2,3 2,8 2,3 3,4 5,6 19 10 32 18 SW 1021,2 22 0 0,0
20.02.2020 02:00:00 2,8 1,7 2,2 2,2 3,4 5,6 17 9 35 19 SW 1021,7 36 0 0,0
20.02.2020 01:00:00 2,7 1,6 2,2 2,1 3,4 5,6 18 10 32 17 SW 1022,3 23 0 0,0
20.02.2020 00:00:00 2,4 1,2 2,0 1,9 3,5 5,6 16 9 33 18 SW 1023,0 21 0 0,0
19.02.2020 23:00:00 2,1 0,5 1,6 1,6 3,6 5,6 14 7 29 15 SSW 1023,3 28 0 0,0
19.02.2020 22:00:00 2,1 -0,3 1,4 1,4 3,7 5,6 16 9 34 18 SW 1023,4 28 0 0,0
19.02.2020 21:00:00 2,3 -1,8 0,7 1,2 3,9 5,6 18 10 29 15 SW 1023,7 45 0 0,0
19.02.2020 20:00:00 1,8 -2,3 0,4 1,2 4,1 5,6 12 6 18 10 SSW 1024,1 49 0 0,0
19.02.2020 19:00:00 2,1 -2,5 -0,3 1,9 4,1 5,6 11 6 28 15 SW 1024,0 43 0 0,0
19.02.2020 18:00:00 3,0 -2,9 1,4 2,9 4,2 5,6 16 9 32 17 WSW 1023,5 51 2 0,0
19.02.2020 17:00:00 3,5 -2,6 2,3 3,9 4,1 5,6 14 8 38 21 WSW 1023,2 56 0 0,0
19.02.2020 16:00:00 3,8 -2,6 3,5 4,7 3,9 5,6 19 10 36 20 W 1023,0 59 0 0,0
19.02.2020 15:00:00 3,8 -2,0 4,1 5,4 3,8 5,6 20 11 42 23 W 1022,8 46 39 0,0
19.02.2020 14:00:00 3,9 -0,7 4,4 4,4 3,7 5,6 15 8 35 19 W 1022,2 50 4 0,0
19.02.2020 13:00:00 3,0 -0,8 3,2 3,9 3,6 5,6 19 11 42 23 W 1022,4 55 1 0,0
19.02.2020 12:00:00 2,7 -0,8 2,6 3,6 3,6 5,6 21 11 41 22 W 1021,8 47 1 0,0
19.02.2020 11:00:00 2,3 -0,9 2,1 2,9 3,6 5,6 22 12 44 24 W 1020,9 45 1 0,0
19.02.2020 10:00:00 1,8 -0,1 1,5 2,2 3,7 5,6 18 10 30 16 W 1020,3 37 2 0,0
19.02.2020 09:00:00 1,3 -0,3 0,8 1,8 3,7 5,6 17 9 28 15 W 1019,6 38 0 0,0
19.02.2020 08:00:00 0,9 0,2 0,4 1,8 3,8 5,6 14 8 41 22 W 1018,7 55 0 0,7
19.02.2020 07:00:00 1,7 0,6 1,1 2,2 3,9 5,6 16 9 36 20 WSW 1017,0 35 0 0,0
19.02.2020 06:00:00 2,1 1,1 1,5 2,6 3,9 5,6 22 12 40 21 WSW 1016,2 28 0 0,1
19.02.2020 05:00:00 2,7 1,6 2,1 2,8 3,9 5,6 23 12 42 23 WSW 1015,5 73 0 0,7
19.02.2020 04:00:00 2,9 2,2 2,4 2,9 4,0 5,6 21 11 45 25 SW 1015,0 13 0 1,4
19.02.2020 03:00:00 3,3 2,1 2,6 2,9 4,0 5,6 22 12 47 26 SW 1015,7 21 0 0,5
19.02.2020 02:00:00 3,5 2,1 2,7 2,9 4,1 5,6 24 13 48 26 SW 1017,0 20 0 0,2
19.02.2020 01:00:00 3,7 2,0 2,6 2,8 4,1 5,6 20 11 40 22 SSW 1018,2 42 0 0,0
19.02.2020 00:00:00 4,1 1,7 3,1 2,7 4,2 5,6 23 12 42 23 SW 1019,3 30 0 0,0
18.02.2020 23:00:00 3,8 1,7 3,0 2,6 4,3 5,6 23 12 51 28 SW 1021,0 42 0 0,0
18.02.2020 22:00:00 3,9 1,2 2,8 2,6 4,4 5,5 24 13 43 23 SW 1021,4 41 0 0,0
18.02.2020 21:00:00 3,9 1,3 2,7 2,7 4,5 5,5 21 11 38 21 SW 1022,3 38 0 0,0
18.02.2020 20:00:00 4,0 1,0 2,4 2,8 4,6 5,5 21 12 38 21 SW 1022,7 44 0 0,0
18.02.2020 19:00:00 3,8 1,2 2,3 3,4 4,6 5,5 21 11 35 19 SW 1023,3 36 0 0,0
18.02.2020 18:00:00 3,8 1,6 2,3 4,2 4,6 5,5 15 8 30 16 SW 1023,3 30 8 0,0
18.02.2020 17:00:00 3,9 1,7 3,1 4,7 4,5 5,5 20 11 47 26 SW 1023,4 34 2 0,0
18.02.2020 16:00:00 4,5 0,7 3,8 5,0 4,4 5,5 21 11 41 22 SW 1023,6 38 1 0,0
18.02.2020 15:00:00 4,6 0,4 4,1 5,2 4,3 5,5 22 12 45 24 SW 1024,0 39 2 0,0
18.02.2020 14:00:00 4,0 0,6 4,0 5,0 4,1 5,5 24 13 43 23 SW 1024,7 35 2 0,0
18.02.2020 13:00:00 3,9 0,7 3,9 4,6 4,1 5,5 21 12 42 23 SW 1025,0 39 0 0,0
18.02.2020 12:00:00 3,8 0,6 3,3 4,1 4,0 5,5 24 13 46 25 SW 1025,4 40 5 0,1
18.02.2020 11:00:00 3,3 0,2 2,7 3,5 4,0 5,5 22 12 41 22 SW 1025,7 28 0 0,0
18.02.2020 10:00:00 2,6 1,1 2,1 2,9 4,1 5,5 18 10 32 17 SW 1025,7 17 0 0,1
18.02.2020 09:00:00 2,7 0,7 1,9 2,4 4,2 5,5 16 9 31 17 SW 1025,3 36 0 0,0
18.02.2020 08:00:00 2,3 0,9 1,5 2,1 4,3 5,5 20 11 33 18 SW 1024,4 27 0 0,0
18.02.2020 07:00:00 2,2 0,7 0,6 2,3 4,4 5,4 20 11 38 20 WSW 1023,7 47 0 0,0
18.02.2020 06:00:00 2,6 1,2 1,7 2,7 4,5 5,4 23 12 42 23 WSW 1023,3 33 0 0,1
18.02.2020 05:00:00 2,9 1,1 1,8 2,6 4,5 5,4 22 12 45 24 WSW 1022,7 35 0 0,0
18.02.2020 04:00:00 3,4 1,4 2,3 3,0 4,6 5,4 22 12 48 26 WSW 1022,0 10 0 0,2
18.02.2020 03:00:00 3,8 1,3 2,6 3,2 4,7 5,4 22 12 48 26 WSW 1021,6 44 0 0,0
18.02.2020 02:00:00 4,3 1,2 3,0 3,3 4,7 5,4 24 13 40 21 SW 1021,2 46 0 0,0
18.02.2020 01:00:00 4,3 1,4 3,0 3,4 4,8 5,4 21 12 44 24 WSW 1020,4 48 0 0,1
18.02.2020 00:00:00 4,8 1,2 3,7 3,5 4,9 5,4 25 14 42 23 WSW 1019,6 33 0 0,0
17.02.2020 23:00:00 4,9 1,3 3,7 3,5 5,0 5,4 26 14 50 27 WSW 1018,8 59 0 0,0
17.02.2020 22:00:00 4,8 2,0 3,2 3,3 5,1 5,4 28 15 54 29 WSW 1017,9 54 0 0,0
17.02.2020 21:00:00 4,7 2,9 3,6 3,2 5,3 5,4 24 13 44 24 SW 1017,3 45 0 0,0
17.02.2020 20:00:00 4,2 2,2 2,5 3,4 5,4 5,4 23 12 40 21 SW 1017,2 57 0 0,0
17.02.2020 19:00:00 4,5 1,9 2,7 3,9 5,5 5,4 23 12 39 21 SW 1016,8 55 0 0,0
17.02.2020 18:00:00 4,4 2,0 2,8 4,8 5,6 5,3 20 11 35 19 SW 1016,2 65 19 0,0
17.02.2020 17:00:00 2,8 2,1 2,6 5,4 5,5 5,3 29 16 64 35 WSW 1016,6 24 25 1,0
17.02.2020 16:00:00 6,5 2,4 5,5 6,6 5,4 5,3 24 13 46 25 SW 1014,8 12 17 0,1
17.02.2020 15:00:00 7,1 2,1 7,0 7,0 5,2 5,3 24 13 45 25 SW 1014,9 55 42 0,0
17.02.2020 14:00:00 6,7 2,2 6,6 6,4 5,2 5,3 19 11 47 26 SW 1015,3 57 24 0,0
17.02.2020 13:00:00 6,3 2,1 6,9 5,8 5,1 5,3 20 11 41 22 SW 1015,5 73 5 0,0
17.02.2020 12:00:00 5,7 1,8 5,5 5,2 5,1 5,3 23 13 41 22 SW 1015,8 63 0 0,0
17.02.2020 11:00:00 5,5 2,7 5,2 4,7 5,2 5,3 18 10 36 20 SW 1015,7 64 0 0,0
17.02.2020 10:00:00 5,3 2,7 4,7 4,3 5,3 5,3 17 9 36 19 SW 1015,2 54 0 0,0
17.02.2020 09:00:00 5,1 2,9 4,4 4,1 5,4 5,3 20 11 38 20 SW 1015,6 50 0 0,0
17.02.2020 08:00:00 4,9 2,9 4,0 4,0 5,5 5,3 19 11 34 19 SW 1015,3 59 0 0,0
17.02.2020 07:00:00 4,8 2,6 3,8 4,1 5,6 5,3 18 10 31 17 SW 1015,3 58 0 0,0
17.02.2020 06:00:00 4,7 2,6 3,6 4,3 5,7 5,3 18 10 35 19 SW 1015,7 57 0 0,0
17.02.2020 05:00:00 4,7 2,7 3,6 4,5 5,9 5,3 19 10 37 20 SW 1014,9 75 0 0,0
17.02.2020 04:00:00 4,9 2,8 3,8 4,8 6,0 5,3 23 12 42 23 SW 1014,7 61 0 0,0
17.02.2020 03:00:00 5,0 3,0 4,0 5,2 6,1 5,2 21 11 41 22 SW 1013,7 59 0 0,0
17.02.2020 02:00:00 5,2 3,3 4,2 5,6 6,2 5,2 23 13 59 32 SW 1012,7 68 0 0,9
17.02.2020 01:00:00 5,7 4,5 5,0 6,1 6,2 5,2 33 18 61 33 WSW 1012,2 9 0 1,1
17.02.2020 00:00:00 6,3 5,4 5,6 6,6 6,2 5,2 19 10 44 24 SW 1010,8 15 0 1,8
16.02.2020 23:00:00 7,1 6,1 6,4 7,3 6,2 5,2 27 15 53 29 W 1009,9 8 0 2,1
16.02.2020 22:00:00 12,9 5,4 11,7 7,4 6,2 5,2 30 16 64 35 SW 1005,4 65 0 0,0
16.02.2020 21:00:00 12,0 4,9 10,4 7,3 6,3 5,2 33 18 79 43 SSW 1004,2 60 0 0,0
16.02.2020 20:00:00 12,7 4,8 11,0 7,5 6,2 5,2 39 21 77 42 SW 1003,8 66 0 0,0
16.02.2020 19:00:00 13,5 4,6 11,8 7,7 6,2 5,2 44 24 86 46 SW 1003,6 58 0 0,0
16.02.2020 18:00:00 13,5 4,3 11,8 8,2 6,1 5,2 45 25 80 43 SW 1003,4 67 14 0,0
16.02.2020 17:00:00 14,0 4,7 12,5 8,7 5,9 5,2 41 22 84 46 SW 1003,6 64 7 0,0
16.02.2020 16:00:00 14,6 4,9 13,5 9,3 5,7 5,2 34 18 75 40 SW 1004,3 74 55 0,0
16.02.2020 15:00:00 13,9 5,2 13,1 9,4 5,5 5,2 34 18 79 42 SW 1005,0 63 16 0,0
16.02.2020 14:00:00 13,9 5,4 14,1 9,3 5,3 5,2 36 19 66 36 SW 1005,3 51 58 0,0
16.02.2020 13:00:00 12,4 4,5 11,9 8,4 5,1 5,2 33 18 69 37 SW 1007,0 72 36 0,0
16.02.2020 12:00:00 11,3 4,7 10,0 7,8 4,9 5,2 27 15 63 34 SW 1008,5 75 27 0,0
16.02.2020 11:00:00 9,7 5,4 8,3 7,4 4,8 5,2 30 16 71 38 SSW 1008,2 58 5 0,0
16.02.2020 10:00:00 9,1 6,7 8,0 6,9 4,7 5,2 28 15 72 39 SSW 1009,4 28 0 0,1
16.02.2020 09:00:00 9,1 7,0 7,9 6,2 4,6 5,2 33 18 68 37 SW 1009,9 21 0 0,2
16.02.2020 08:00:00 8,6 6,9 7,4 5,8 4,5 5,2 31 17 61 33 SW 1010,1 15 0 0,2
16.02.2020 07:00:00 9,4 5,5 8,3 5,4 4,5 5,2 29 16 66 35 SW 1010,3 39 0 0,0
16.02.2020 06:00:00 9,3 4,2 8,0 5,1 4,4 5,2 24 13 47 25 SSW 1011,1 52 0 0,0
16.02.2020 05:00:00 9,1 4,0 7,9 4,9 4,4 5,2 21 11 46 25 SSW 1012,0 58 0 0,0
16.02.2020 04:00:00 8,7 3,8 7,6 4,9 4,4 5,2 21 12 49 26 SSW 1012,6 57 0 0,0
16.02.2020 03:00:00 9,0 4,1 7,6 4,8 4,4 5,2 24 13 51 28 SSW 1012,9 51 0 0,0
16.02.2020 02:00:00 8,3 3,9 7,2 4,7 4,4 5,2 24 13 46 25 SSW 1013,3 50 0 0,0
16.02.2020 01:00:00 8,2 4,0 6,9 4,6 4,4 5,2 25 14 54 29 SSW 1013,6 48 0 0,0
16.02.2020 00:00:00 7,8 3,5 6,6 4,6 4,4 5,2 26 14 61 33 SW 1014,2 42 0 0,0
15.02.2020 23:00:00 7,7 3,0 6,4 4,5 4,4 5,2 19 10 46 25 SSW 1014,8 51 0 0,0
15.02.2020 22:00:00 7,2 3,1 6,3 4,5 4,5 5,2 19 11 39 21 SSW 1016,2 53 0 0,0
15.02.2020 21:00:00 7,0 2,8 6,0 4,6 4,5 5,2 19 10 41 22 SSW 1016,4 56 0 0,0
15.02.2020 20:00:00 7,1 3,0 6,1 4,6 4,5 5,2 19 10 39 21 SSW 1016,3 46 0 0,0
15.02.2020 19:00:00 7,3 3,3 5,9 5,0 4,5 5,2 18 10 36 19 SSW 1016,3 38 0 0,0
15.02.2020 18:00:00 7,3 3,5 6,1 5,5 4,4 5,2 16 9 35 19 SSW 1016,7 38 0 0,0
15.02.2020 17:00:00 7,9 3,1 6,7 6,2 4,2 5,2 16 8 36 20 SSW 1017,2 37 23 0,0
15.02.2020 16:00:00 8,9 3,3 8,1 6,8 3,9 5,2 16 9 40 22 SSW 1017,9 40 60 0,0
15.02.2020 15:00:00 8,6 3,4 8,7 7,2 3,6 5,2 18 10 41 22 SSW 1018,3 35 58 0,0
15.02.2020 14:00:00 8,1 3,2 8,4 7,1 3,4 5,2 21 11 42 23 SSW 1019,0 32 58 0,0
15.02.2020 13:00:00 7,6 3,2 7,7 6,1 3,2 5,2 20 11 41 22 SW 1020,1 27 20 0,0
15.02.2020 12:00:00 7,3 3,2 7,0 4,9 3,0 5,2 17 9 37 20 SW 1020,9 23 27 0,0
15.02.2020 11:00:00 6,4 3,3 6,0 4,0 2,9 5,2 18 10 39 21 SSW 1021,1 23 0 0,0
15.02.2020 10:00:00 5,5 3,3 5,1 2,9 2,9 5,2 12 6 28 15 SW 1022,4 26 0 0,0
15.02.2020 09:00:00 4,2 2,7 3,2 2,1 2,9 5,2 9 5 26 14 SSW 1023,1 25 0 0,0
15.02.2020 08:00:00 3,6 2,6 2,6 1,8 3,0 5,2 14 8 26 14 S 1022,5 29 0 0,0
15.02.2020 07:00:00 4,5 2,6 3,1 1,9 3,0 5,2 15 8 30 16 S 1022,1 31 0 0,0
15.02.2020 06:00:00 4,2 2,3 2,9 1,8 3,1 5,2 11 6 25 13 SSW 1023,2 33 0 0,0
15.02.2020 05:00:00 4,4 2,4 2,8 1,6 3,2 5,2 15 8 26 14 SW 1023,3 34 0 0,0
15.02.2020 04:00:00 4,1 2,4 2,5 1,6 3,2 5,2 14 8 25 14 SW 1023,4 34 0 0,0

tt = temperature
td = dewpoint
tt 5cm = temperature 5cm
tt -5cm = temperature -5cm
tt -20cm = temperature -20cm
tt -100cm = temperature -100cm
ff = wind speed
fx = gusts
dd = wind direction
ppp = reduced air pressure
vv = visibility
sd = sunshine duration
rr = precipitation

Next stations